{"data":{"norad_id":53393,"epoch":"2026-05-25T03:35:39.408288Z","epoch_age_seconds":75777,"freshness":"FRESH","line1":"1 53393U 22097F   26145.14976167 -.00002970  00000+0 -16857-3 0  9991","line2":"2 53393  53.2132 140.8764 0001149  72.8506 287.2611 15.08839352210211","mean_motion":15.08839352,"eccentricity":0.0001149,"inclination_deg":53.2132,"raan_deg":140.8764,"arg_perigee_deg":72.8506,"mean_anomaly_deg":287.2611,"bstar":-0.00016857,"rev_number":21021,"period_min":95.437595665254,"perigee_km":538.9505049573,"apogee_km":540.54023432585,"semimajor_km":6917.8823696416,"source":"CELESTRAK","updated_at":"2026-05-25T13:38:17.395120Z"}}